When you browse on this site, cookies collect data to enhance your experience and personalize the content and advertising you see.
Visit our Privacy Policy to learn more. By continuing to use the site, you agree to this use of cookies and data.
  • In Latvia
  • List of Countries
  • For 7 days
  • Water Temperature
  • Weather Map
  • Weather Widgets
  • user-avatar
    Login

    Hourly Weather Trypolis

    Today, 26 August, Monday

    Time Temperature Precipitation Wind Pressure Humidity
    00:00 +27°C° 0 mm 2 mps 755 mmHg 77%
    01:00 +27°C° 0 mm 2 mps 755 mmHg 76%
    02:00 +26°C° 0 mm 1 mps 755 mmHg 74%
    03:00 +26°C° 0 mm 1 mps 755 mmHg 72%
    04:00 +26°C° 0 mm 1 mps 755 mmHg 70%
    05:00 +25°C° 0 mm 1 mps 755 mmHg 68%
    06:00 +28°C° 0 mm 1 mps 755 mmHg 59%
    07:00 +31°C° 0 mm 2 mps 755 mmHg 50%
    08:00 +34°C° 0 mm 2 mps 755 mmHg 42%
    09:00 +35°C° 0 mm 3 mps 755 mmHg 43%
    10:00 +36°C° 0 mm 3 mps 755 mmHg 44%
    11:00 +36°C° 0 mm 4 mps 756 mmHg 46%
    12:00 +36°C° 0 mm 4 mps 755 mmHg 46%
    13:00 +36°C° 0 mm 4 mps 755 mmHg 47%
    14:00 +36°C° 0 mm 4 mps 754 mmHg 48%
    15:00 +35°C° 0 mm 3 mps 754 mmHg 50%
    16:00 +35°C° 0 mm 3 mps 754 mmHg 52%
    17:00 +34°C° 0 mm 2 mps 754 mmHg 54%
    18:00 +31°C° 0 mm 2 mps 754 mmHg 59%
    19:00 +29°C° 0 mm 2 mps 755 mmHg 63%
    20:00 +28°C° 0 mm 1 mps 755 mmHg 67%
    21:00 +27°C° 0 mm 1 mps 755 mmHg 66%
    22:00 +27°C° 0 mm 1 mps 755 mmHg 65%
    23:00 +25°C° 0 mm 0 mps 755 mmHg 63%

    Tomorrow, 27 August, Tuesday

    Time Temperature Precipitation Wind Pressure Humidity
    00:00 +24°C° 0 mm 0 mps 755 mmHg 62%
    01:00 +24°C° 0 mm 0 mps 755 mmHg 62%
    02:00 +24°C° 0 mm 0 mps 755 mmHg 61%
    03:00 +24°C° 0 mm 0 mps 755 mmHg 60%
    04:00 +24°C° 0 mm 0 mps 755 mmHg 59%
    05:00 +24°C° 0 mm 0 mps 755 mmHg 58%
    06:00 +28°C° 0 mm 1 mps 755 mmHg 52%
    07:00 +31°C° 0 mm 1 mps 755 mmHg 46%
    08:00 +34°C° 0 mm 2 mps 755 mmHg 40%
    09:00 +35°C° 0 mm 2 mps 755 mmHg 41%
    10:00 +36°C° 0 mm 3 mps 755 mmHg 42%
    11:00 +36°C° 0 mm 3 mps 755 mmHg 44%
    12:00 +36°C° 0 mm 3 mps 755 mmHg 45%
    13:00 +36°C° 0 mm 3 mps 754 mmHg 47%
    14:00 +36°C° 0 mm 3 mps 754 mmHg 48%
    15:00 +36°C° 0 mm 2 mps 754 mmHg 51%
    16:00 +35°C° 0 mm 2 mps 753 mmHg 54%
    17:00 +34°C° 0 mm 2 mps 753 mmHg 56%
    18:00 +32°C° 0 mm 1 mps 753 mmHg 61%
    19:00 +30°C° 0 mm 1 mps 754 mmHg 66%
    20:00 +28°C° 0 mm 1 mps 754 mmHg 70%
    21:00 +28°C° 0 mm 1 mps 754 mmHg 71%
    22:00 +28°C° 0 mm 1 mps 754 mmHg 73%
    23:00 +27°C° 0 mm 1 mps 755 mmHg 74%

    Day after tomorrow, 28 August, Wednesday

    Time Temperature Precipitation Wind Pressure Humidity
    00:00 +27°C° 0 mm 1 mps 754 mmHg 74%
    01:00 +27°C° 0 mm 1 mps 754 mmHg 74%
    02:00 +27°C° 0 mm 1 mps 754 mmHg 74%
    03:00 +27°C° 0 mm 1 mps 754 mmHg 73%
    04:00 +26°C° 0 mm 1 mps 754 mmHg 72%
    05:00 +26°C° 0 mm 1 mps 754 mmHg 71%
    06:00 +29°C° 0 mm 2 mps 754 mmHg 64%
    07:00 +31°C° 0 mm 2 mps 754 mmHg 56%
    08:00 +34°C° 0 mm 3 mps 754 mmHg 48%
    09:00 +35°C° 0 mm 3 mps 754 mmHg 50%
    10:00 +35°C° 0 mm 4 mps 754 mmHg 52%
    11:00 +36°C° 0 mm 4 mps 754 mmHg 54%
    12:00 +36°C° 0 mm 4 mps 753 mmHg 55%
    13:00 +36°C° 0 mm 4 mps 753 mmHg 55%
    14:00 +36°C° 0 mm 3 mps 753 mmHg 56%
    15:00 +35°C° 0 mm 3 mps 753 mmHg 58%
    16:00 +35°C° 0 mm 3 mps 752 mmHg 60%
    17:00 +34°C° 0 mm 2 mps 752 mmHg 62%
    18:00 +31°C° 0 mm 2 mps 753 mmHg 67%
    19:00 +30°C° 0 mm 2 mps 753 mmHg 71%
    20:00 +28°C° 0 mm 2 mps 753 mmHg 76%
    21:00 +28°C° 0 mm 2 mps 754 mmHg 75%
    22:00 +28°C° 0 mm 2 mps 754 mmHg 75%
    23:00 +28°C° 0 mm 2 mps 754 mmHg 74%

    29 August, Thursday

    Time Temperature Precipitation Wind Pressure Humidity
    00:00 +28°C° 0 mm 2 mps 754 mmHg 74%
    01:00 +27°C° 0 mm 2 mps 754 mmHg 74%
    02:00 +27°C° 0 mm 2 mps 754 mmHg 74%
    03:00 +27°C° 0 mm 2 mps 754 mmHg 73%
    04:00 +27°C° 0 mm 2 mps 754 mmHg 72%
    05:00 +27°C° 0 mm 2 mps 754 mmHg 71%
    06:00 +29°C° 0 mm 2 mps 754 mmHg 65%
    07:00 +31°C° 0 mm 3 mps 754 mmHg 59%
    08:00 +34°C° 0 mm 3 mps 754 mmHg 53%
    09:00 +34°C° 0 mm 4 mps 754 mmHg 53%
    10:00 +35°C° 0 mm 4 mps 754 mmHg 53%
    11:00 +36°C° 0 mm 5 mps 753 mmHg 53%
    12:00 +36°C° 0 mm 5 mps 753 mmHg 54%
    13:00 +36°C° 0 mm 5 mps 753 mmHg 55%
    14:00 +36°C° 0 mm 5 mps 752 mmHg 56%
    15:00 +35°C° 0 mm 5 mps 752 mmHg 59%
    16:00 +34°C° 0 mm 4 mps 752 mmHg 61%
    17:00 +33°C° 0 mm 4 mps 752 mmHg 63%
    18:00 +32°C° 0 mm 4 mps 752 mmHg 67%
    19:00 +30°C° 0 mm 4 mps 753 mmHg 70%
    20:00 +29°C° 0 mm 4 mps 753 mmHg 73%
    21:00 +28°C° 0 mm 4 mps 753 mmHg 72%
    22:00 +28°C° 0 mm 4 mps 753 mmHg 71%
    23:00 +27°C° 0 mm 4 mps 753 mmHg 70%

    30 August, Friday

    Time Temperature Precipitation Wind Pressure Humidity
    00:00 +27°C° 0 mm 4 mps 753 mmHg 70%
    01:00 +27°C° 0 mm 4 mps 753 mmHg 70%
    02:00 +27°C° 0 mm 4 mps 753 mmHg 70%
    03:00 +26°C° 0 mm 3 mps 753 mmHg 66%
    04:00 +26°C° 0 mm 3 mps 753 mmHg 62%
    05:00 +26°C° 0 mm 3 mps 753 mmHg 57%
    06:00 +29°C° 0 mm 3 mps 753 mmHg 53%
    07:00 +32°C° 0 mm 4 mps 753 mmHg 49%
    08:00 +34°C° 0 mm 4 mps 753 mmHg 44%
    09:00 +35°C° 0 mm 5 mps 753 mmHg 48%
    10:00 +35°C° 0 mm 5 mps 753 mmHg 52%
    11:00 +35°C° 0 mm 6 mps 753 mmHg 56%
    12:00 +35°C° 0 mm 6 mps 753 mmHg 56%
    13:00 +35°C° 0 mm 5 mps 753 mmHg 55%
    14:00 +36°C° 0 mm 5 mps 752 mmHg 54%
    15:00 +35°C° 0 mm 4 mps 752 mmHg 57%
    16:00 +34°C° 0 mm 4 mps 752 mmHg 61%
    17:00 +33°C° 0 mm 3 mps 752 mmHg 64%
    18:00 +31°C° 0 mm 3 mps 752 mmHg 68%
    19:00 +29°C° 0 mm 2 mps 753 mmHg 73%
    20:00 +28°C° 0 mm 2 mps 753 mmHg 78%
    21:00 +27°C° 0 mm 2 mps 753 mmHg 76%
    22:00 +27°C° 0 mm 1 mps 753 mmHg 74%
    23:00 +26°C° 0 mm 1 mps 753 mmHg 72%

    31 August, Saturday

    Time Temperature Precipitation Wind Pressure Humidity
    00:00 +26°C° 0 mm 1 mps 753 mmHg 70%
    01:00 +26°C° 0 mm 1 mps 753 mmHg 68%
    02:00 +26°C° 0 mm 1 mps 753 mmHg 66%
    03:00 +25°C° 0 mm 1 mps 753 mmHg 65%
    04:00 +25°C° 0 mm 1 mps 753 mmHg 63%
    05:00 +25°C° 0 mm 1 mps 753 mmHg 61%
    06:00 +28°C° 0 mm 1 mps 753 mmHg 55%
    07:00 +31°C° 0 mm 1 mps 753 mmHg 49%
    08:00 +33°C° 0 mm 1 mps 753 mmHg 43%
    09:00 +35°C° 0 mm 2 mps 753 mmHg 45%
    10:00 +35°C° 0 mm 2 mps 753 mmHg 48%
    11:00 +36°C° 0 mm 3 mps 753 mmHg 50%
    12:00 +36°C° 0 mm 3 mps 753 mmHg 52%
    13:00 +36°C° 0 mm 2 mps 752 mmHg 53%
    14:00 +36°C° 0 mm 2 mps 752 mmHg 55%
    15:00 +35°C° 0 mm 2 mps 752 mmHg 56%
    16:00 +34°C° 0 mm 1 mps 752 mmHg 58%
    17:00 +33°C° 0 mm 1 mps 752 mmHg 59%
    18:00 +32°C° 0 mm 1 mps 752 mmHg 63%
    19:00 +28°C° 0 mm 0 mps 752 mmHg 67%
    20:00 +27°C° 0 mm 0 mps 753 mmHg 70%
    21:00 +26°C° 0 mm 0 mps 753 mmHg 71%
    22:00 +28°C° 0 mm 1 mps 753 mmHg 71%
    23:00 +27°C° 0 mm 1 mps 753 mmHg 71%
    Show more